Search your local weather  

 
Advertise Here

Hazardous Weather Conditions

No active alerts for NEW YORK, NEW YORK

Current Conditions: NEW YORK, NEW YORK

Fair


47.0 F

Last Updated on Nov 28 2020, 7:51 pm EST
Humidity: 52%
Wind Speed: W 6.9 mph
Barometer 30.08 in
Dewpoint: 30.0 F
Visibility: 10.00 mi
Precip: --
Heat Index: NA
Wind Chill: 44 F
Current conditions at:

New York City, Central Park, NY (KNYC)

Lat: 40.78333 Lon: -73.96667

Local Radar Image active severe weather and emergency alerts image image weather storm and storm spotter reports image weather observation monitoring service image
Local
Radar
Active
Alerts
Storm Reports Weather
Monitoring

5 Day Forecast for NEW YORK, NEW YORK (10001)

Saturday
Night
Mostly Clear

Low 39 °F
Sunday

Mostly Clear

High 54 °F
Sunday
Night
Chance of Rain
Low 45 °F
Monday

T-storms


High 62 °F
Monday
Night
Rain Likely
Low 50 °F
Tuesday

Chance of Rain Showers
High 55 °F
Tuesday
Night
Partly Cloudy

Low 35 °F
Wednesday

Mostly Sunny

High 45 °F
Wednesday
Night
Mostly Clear

Low 35 °F

Sign-up For Email & Text Message Weather Alert Notification Services


Advertise Here

Observation History for NEW YORK, NEW YORK


Time Wind
(mph)
Vis
(mi)
Weather Precip (in) Temperature (F) Relative
Humidity
Wind
Chill
(F)
Heat
Index
(F)
Pressure
Air Dwpt altimeter
(in)
sea level
(mb)
7:51 pm EST W 6.9 10.00 Fair -- 47.0 30.0 52% 44 NA 30.08 1017.9
6:51 pm EST NW 9.2 10.00 Fair -- 48.0 32.0 54% 44 NA 30.08 1017.7
5:51 pm EST 6.9 10.00 Fair -- 49.0 33.1 55% 46 NA 30.06 1017.2
4:51 pm EST N 0.0 10.00 Fair -- 51.0 32.0 48% NA NA 30.03 1016.2
3:51 pm EST 3.5 10.00 Mostly Cloudy -- 52.0 33.1 49% NA NA 30.01 1015.4
2:51 pm EST W 9.2 10.00 Partly Cloudy -- 54.0 33.1 45% 51 NA 29.98 1014.2
1:51 pm EST NW 8.1 G 17.3 10.00 Overcast -- 53.0 34.0 48% 50 NA 29.98 1014.2
12:51 pm EST 4.6 10.00 Overcast -- 55.0 34.0 45% 54 NA 29.97 1014.1
11:51 am EST W 9.2 10.00 Mostly Cloudy -- 54.0 35.1 49% 51 NA 29.98 1014.3
10:51 am EST 3.5 10.00 Mostly Cloudy -- 54.0 36.0 51% NA NA 30.00 1014.9
9:51 am EST SW 3.5 10.00 Overcast -- 53.0 34.0 48% NA NA 30.01 1015.4
8:51 am EST W 4.6 10.00 Fair -- 51.0 36.0 56% 50 NA 30.00 1015.1
7:51 am EST N 0.0 10.00 Mostly Cloudy Trace 49.0 39.0 69% NA NA 30.00 1015.0
5:51 am EST W 4.6 10.00 Overcast -- 49.0 36.0 61% 47 NA 29.99 1014.8
4:51 am EST 4.6 10.00 Overcast -- 49.0 36.0 61% 47 NA 29.99 1014.6
3:51 am EST NW 5.8 10.00 Overcast -- 48.0 36.0 63% 45 NA 29.98 1014.2
2:51 am EST N 6.9 10.00 Fair -- 49.0 35.1 59% 46 NA 29.98 1014.1
12:51 am EST N 0.0 10.00 Overcast -- 51.0 37.9 61% NA NA 29.98 1014.4
11:51 pm EST NW 5.8 10.00 Mostly Cloudy -- 51.0 37.9 61% 49 NA 30.01 1015.3
10:51 pm EST W 4.6 10.00 Mostly Cloudy -- 52.0 36.0 55% 51 NA 30.01 1015.3
9:51 pm EST NW 4.6 10.00 Fair -- 53.0 36.0 52% 52 NA 30.00 1015.1
8:51 pm EST W 5.8 10.00 Fair -- 53.0 37.0 55% 51 NA 30.01 1015.3

Regional Weather Observation

New York, La Guardia Airport, NY (KLGA)

A Few Clouds
50.0 F

Newark, Newark International Airport, NJ (KEWR)

Fair
47.0 F

New York, Kennedy International Airport, NY (KJFK)

A Few Clouds
47.0 F

Teterboro, Teterboro Airport, NJ (KTEB)

Fair
44.0 F

Caldwell, Essex County Airport, NJ (KCDW)

Fair
42.0 F

Morristown Municipal, NJ (KMMU)

Clear
45.0 F
Advertise Here

Advertise Here